This is the latest recevied weather packets stored in our database for station/object WI0K. If no packets are shown the sender has not sent any weather packets the latest 10 day(s).
| Time | Temp. | Humidity | Pressure | Rain* | Wind** | Luminosity | Snow |
|---|---|---|---|---|---|---|---|
| 1778094418 | 1.11° C | 85% | 1020.5 hPa | 0 mm | - | 602 W/m² | - |
| 1778094117 | 1.11° C | 87% | 1020.5 hPa | 0 mm | - | 779 W/m² | - |
| 1778093816 | 0.56° C | 89% | 1020.7 hPa | 0 mm | - | 986 W/m² | - |
| 1778093516 | 0.56° C | 88% | 1020.7 hPa | 0 mm | - | 638 W/m² | - |
| 1778093214 | 0.56° C | 87% | 1020.8 hPa | 0 mm | - | 867 W/m² | - |
| 1778092914 | 0° C | 88% | 1020.9 hPa | 0 mm | - | 743 W/m² | - |
| 1778092613 | 0° C | 88% | 1020.8 hPa | 0 mm | - | 661 W/m² | - |
| 1778092313 | 0.56° C | 87% | 1020.8 hPa | 0 mm | - | 666 W/m² | - |
| 1778092012 | 0.56° C | 89% | 1020.8 hPa | 0 mm | - | 682 W/m² | - |
| 1778091957 | 0° C | 89% | 1020.8 hPa | 0 mm | - | 783 W/m² | - |
| 1778091711 | 0° C | 89% | 1020.8 hPa | 0 mm | - | 783 W/m² | - |
| 1778091657 | 0° C | 86% | 1020.9 hPa | 0 mm | - | 818 W/m² | - |
| 1778091411 | 0° C | 86% | 1020.9 hPa | 0 mm | - | 818 W/m² | - |
| 1778091356 | 0° C | 89% | 1020.8 hPa | 0 mm | - | 691 W/m² | - |
| 1778091110 | 0° C | 89% | 1020.8 hPa | 0 mm | - | 691 W/m² | - |
| 1778091061 | -0.56° C | 89% | 1020.8 hPa | 0 mm | - | 599 W/m² | - |
| 1778090810 | -0.56° C | 89% | 1020.8 hPa | 0 mm | - | 599 W/m² | - |
| 1778090760 | -0.56° C | 91% | 1020.8 hPa | 0 mm | - | 495 W/m² | - |
| 1778090509 | -0.56° C | 91% | 1020.8 hPa | 0 mm | - | 495 W/m² | - |
| 1778090460 | 0° C | 89% | 1020.7 hPa | 0 mm | - | 519 W/m² | - |
| 1778090208 | 0° C | 89% | 1020.7 hPa | 0 mm | - | 519 W/m² | - |
| 1778089908 | -0.56° C | 91% | 1020.8 hPa | 0 mm | - | 556 W/m² | - |
| 1778089607 | -0.56° C | 88% | 1020.7 hPa | 0 mm | - | 569 W/m² | - |
| 1778089307 | -0.56° C | 89% | 1020.7 hPa | 0 mm | - | 563 W/m² | - |
| 1778089006 | -0.56° C | 90% | 1020.8 hPa | 0 mm | - | 566 W/m² | - |
* Rain latest hour (hover to see other rain measurements)
** Current wind speed in m/s (hover to see current wind gust speed)